Regional Weather Roundup
Issued by NWS Goodland, KS

Home | Current Version | Previous Version | Text Only | Print | Product List | Glossary Off
Versions: 1 2 3 4 5 6 7 8 9 10 11 12 13 14 15 16 17 18 19 20 21 22 23 24 25 26 27 28 29 30 31 32 33 34 35 36 37 38 39 40 41 42 43 44 45 46 47 48 49 50

000
ASUS43 KGLD 301259
RWRGLD

GOODLAND FORECAST AREA HOURLY WEATHER ROUNDUP
NATIONAL WEATHER SERVICE GOODLAND KS
700 AM MDT SAT AUG 30 2014

...OFFICIAL OBSERVATIONS...

CITY           SKY/WX    TMP DP  RH WIND       PRES   REMARKS
GOODLAND KS    CLEAR     57  55  93 W6        30.06R
HILL CITY KS   CLEAR     62  59  90 CALM      30.01R
IMPERIAL NEB   CLEAR     58  56  93 CALM      30.03S
MCCOOK NEB     CLEAR     59  58  96 CALM      30.02R
AKRON CO       CLEAR     57  53  86 S10       30.07S
BURLINGTON CO  CLEAR     54  51  90 SW3       30.09R
LIMON CO       CLEAR     51  46  83 VRB5      30.12S
$$

...UNOFFICIAL OBSERVATIONS...

CITY           SKY/WX    TMP DP  RH WIND       PRES   REMARKS
COLBY KS       CLEAR     57  57 100 CALM      30.04S
GOVE KS          N/A     57  32  39 CALM        N/A
NORTON KS      CLEAR     59  54  82 NE3       30.00S
SHARON SPRINGS   N/A     56  53  90 W5          N/A
YUMA CO          N/A     55  52  91 CALM        N/A
$$


USA.gov is the U.S. government's official web portal to all federal, state and local government web resources and services.